Weather History for Topeka Forbes, KS

Change the Weather History Date:

Thursday, November 17, 2011

  Actual Average Record
Temperature  
Mean Temperature 34 °F -  
Max Temperature 48 °F 56 °F 75 °F (1999)
Min Temperature 19 °F 33 °F 5 °F (1959)
Degree Days  
Heating Degree Days 32    
Moisture  
Dew Point 23 °F    
Average Humidity 61    
Maximum Humidity 92    
Minimum Humidity 29    
Precipitation  
Precipitation 0.00 in - - ()
Sea Level Pressure  
Sea Level Pressure 30.27 in    
Wind  
Wind Speed 7 mph (SSW)    
Max Wind Speed 20 mph    
Max Gust Speed 26 mph    
Visibility 10 miles    
Events      
Averages and records for this station are not official NWS values.
T = Trace of Precipitation, MM = Missing Value Source: NWS Daily Summary

Daily Weather History Graph

Daily Weather History Graph

Search for Another Location

Airport:

Trip Planner

Search our weather history database for the weather conditions in past years. The results will help you decide how hot, cold, wet, or windy it might be!

Date:

Astronomy

Nov. 17, 2011 Rise Set
Actual Time 7:07 AM CST 5:07 PM CST
Civil Twilight 6:38 AM CST 5:36 PM CST
Nautical Twilight 6:06 AM CST 6:08 PM CST
Astronomical Twilight 5:34 AM CST 6:39 PM CST
Moon 11:27 PM CST (11/17) 12:17 PM CST (11/17)
Length of Visible Light 10h 57m
Length of Day
10h 00m
Waning Gibbous, 59% of the Moon is Illuminated
Nov 17
Waning Gibbous
Nov 18
Last Quarter
Nov 25
New
Dec 2
First Quarter
Dec 10
Full

Hourly Weather History & Observations

Time (CST) Temp. Windchill Dew Point Humidity Pressure Visibility Wind Dir Wind Speed Gust Speed Precip Events Conditions
12:53 AM 28.0 °F 21.7 °F 25.0 °F 88% 30.38 in 10.0 mi NW 5.8 mph - N/A   Clear
1:53 AM 27.0 °F - 24.1 °F 89% 30.39 in 10.0 mi Calm Calm - N/A   Clear
2:53 AM 27.0 °F 20.5 °F 24.1 °F 89% 30.40 in 10.0 mi West 5.8 mph - N/A   Clear
3:53 AM 23.0 °F - 21.0 °F 92% 30.39 in 10.0 mi Calm Calm - N/A   Clear
4:53 AM 24.1 °F 17.0 °F 21.0 °F 88% 30.40 in 10.0 mi West 5.8 mph - N/A   Clear
5:53 AM 21.0 °F 16.2 °F 19.0 °F 92% 30.40 in 10.0 mi SW 3.5 mph - N/A   Clear
6:53 AM 19.9 °F 12.1 °F 17.1 °F 89% 30.40 in 10.0 mi WSW 5.8 mph - N/A   Clear
8:53 AM 28.9 °F - 26.1 °F 89% 30.40 in 10.0 mi Calm Calm - N/A   Clear
9:53 AM 35.1 °F 30.1 °F 28.9 °F 78% 30.40 in 10.0 mi South 5.8 mph - N/A   Clear
10:53 AM 42.1 °F 36.1 °F 27.0 °F 55% 30.37 in 10.0 mi SW 10.4 mph - N/A   Clear
11:53 AM 46.0 °F 40.2 °F 24.1 °F 42% 30.33 in 10.0 mi SSW 12.7 mph - N/A   Clear
12:53 PM 46.9 °F - 19.9 °F 34% 30.29 in 10.0 mi SSW 12.7 mph - N/A   Clear
1:53 PM 48.9 °F - 21.0 °F 33% 30.26 in 10.0 mi SSW 19.6 mph 25.3 mph N/A   Clear
2:53 PM 48.9 °F - 21.0 °F 33% 30.23 in 10.0 mi SSW 17.3 mph - N/A   Clear
3:53 PM 48.9 °F - 18.0 °F 29% 30.20 in 10.0 mi South 15.0 mph - N/A   Clear
4:53 PM 46.0 °F 40.6 °F 19.0 °F 34% 30.18 in 10.0 mi South 11.5 mph - N/A   Clear
5:53 PM 43.0 °F 36.8 °F 19.9 °F 40% 30.17 in 10.0 mi South 11.5 mph - N/A   Clear
6:53 PM 39.9 °F 32.9 °F 21.0 °F 47% 30.16 in 10.0 mi SSE 11.5 mph - N/A   Clear
7:53 PM 39.0 °F 31.8 °F 23.0 °F 53% 30.15 in 10.0 mi SSE 11.5 mph - N/A   Clear
8:53 PM 37.9 °F 30.9 °F 24.1 °F 57% 30.13 in 10.0 mi SSE 10.4 mph - N/A   Clear
9:53 PM 39.0 °F 31.8 °F 24.1 °F 55% 30.10 in 10.0 mi South 11.5 mph - N/A   Clear
10:53 PM 39.9 °F 31.8 °F 24.1 °F 53% 30.07 in 10.0 mi South 15.0 mph 21.9 mph N/A   Clear
11:53 PM 39.9 °F 31.4 °F 25.0 °F 55% 30.04 in 10.0 mi South 16.1 mph 26.5 mph N/A   Clear